Visibility
15.0 15.0 15.0 15.0 15.0 15.0 15.0 15.0 15.0 15.0 15.0 15.0 15.0 15.0 15.0 15.0 15.0 15.0 15.0 15.0 15.0 15.0 15.0 15.0 15.0 15.0 15.0 15.0 15.0 15.0 15.0 15.0 15.0 15.0 15.0 15.0 15.0 15.0 15.0 15.0 15.0 15.0 15.0
15.0 15.0 15.0 15.0 15.0 15.0 15.0 15.0 15.0 15.0 15.0 15.0 15.0 15.0 15.0 15.0 15.0 15.0 15.0 15.0 15.0 15.0 15.0 15.0 15.0 15.0 15.0 15.0 15.0 15.0 15.0 15.0 15.0 15.0 15.0 15.0 2.0 15.0 15.0 15.0 15.0 15.0 15.0
15.0 15.0 15.0 15.0 15.0 15.0 15.0 15.0 15.0 15.0 15.0 15.0 15.0 15.0 15.0 15.0 15.0 15.0 15.0 15.0 15.0 15.0 15.0 15.0 15.0 15.0 15.0 15.0 15.0 7.2 5.8 8.5 0.8 15.0 15.0 0.1 6.0 15.0 15.0 15.0 15.0 15.0 15.0
15.0 15.0 15.0 15.0 15.0 15.0 15.0 15.0 15.0 15.0 15.0 15.0 15.0 15.0 15.0 15.0 15.0 15.0 15.0 15.0 15.0 15.0 15.0 15.0 15.0 15.0 13.0 1.8 12.6 13.8 12.7 4.6 8.1 3.3 15.0 15.0 15.0 15.0 15.0 15.0 15.0 15.0 15.0
15.0 15.0 15.0 15.0 15.0 15.0 15.0 15.0 15.0 15.0 15.0 15.0 15.0 15.0 15.0 15.0 15.0 15.0 15.0 15.0 14.0 15.0 15.0 14.8 15.0 15.0 15.0 15.0 9.9 4.6 15.0 5.5 7.4 15.0 15.0 15.0 15.0 15.0 15.0 15.0 15.0 15.0 15.0
15.0 15.0 15.0 15.0 15.0 15.0 15.0 15.0 15.0 15.0 15.0 15.0 15.0 15.0 15.0 15.0 12.3 11.6 15.0 13.9 13.3 13.2 5.5 11.7 11.8 15.0 15.0 15.0 15.0 8.2 15.0 15.0 11.6 14.8 13.1 15.0 15.0 15.0 15.0 15.0 15.0 15.0 15.0
15.0 15.0 15.0 15.0 15.0 15.0 15.0 15.0 15.0 15.0 12.3 15.0 15.0 15.0 15.0 8.1 11.8 10.0 2.9 8.4 5.3 9.0 6.7 12.9 6.2 5.4 15.0 15.0 15.0 13.8 15.0 14.5 15.0 7.2 15.0 11.3 15.0 10.3 14.0 9.7 6.6 15.0 15.0
15.0 8.4 15.0 15.0 15.0 15.0 15.0 15.0 15.0 15.0 13.3 10.0 12.7 14.0 15.0 15.0 15.0 15.0 15.0 13.7 15.0 13.8 13.4 5.5 5.4 0.9 13.5 15.0 15.0 15.0 15.0 15.0 11.7 7.9 15.0 15.0 15.0 7.4 7.6 14.2 5.8 15.0 15.0
15.0 15.0 13.3 15.0 15.0 0.1 0.1 6.4 14.6 15.0 9.5 15.0 13.2 8.7 6.3 5.0 8.8 5.0 6.8 14.1 4.6 12.3 15.0 14.9 5.2 4.6 15.0 5.9 11.7 14.1 15.0 15.0 14.1 10.5 13.8 14.2 14.2 14.2 7.4 14.7 5.9 8.3 5.9
15.0 15.0 15.0 15.0 15.0 0.4 0.2 0.1 11.6 10.3 8.0 10.0 8.2 8.6 11.0 10.9 5.4 5.5 14.5 12.6 9.5 14.7 15.0 15.0 8.6 11.2 15.0 15.0 5.7 5.6 7.4 5.5 10.4 15.0 9.6 12.4 15.0 15.0 15.0 10.3 6.6 15.0 7.7
15.0 15.0 0.1 15.0 14.8 12.7 0.1 3.4 0.3 7.2 15.0 14.5 10.6 10.1 12.7 15.0 12.8 14.3 15.0 15.0 15.0 15.0 15.0 15.0 15.0 15.0 15.0 14.2 15.0 14.7 5.4 9.7 6.1 10.2 6.1 15.0 12.4 15.0 14.0 13.5 12.5 15.0 15.0
15.0 12.5 15.0 2.1 12.3 7.8 0.1 0.1 0.0 2.2 15.0 0.7 9.2 12.7 15.0 15.0 15.0 15.0 15.0 15.0 15.0 15.0 15.0 15.0 15.0 15.0 15.0 15.0 12.3 8.7 13.3 11.2 8.7 4.8 5.9 15.0 15.0 4.3 15.0 15.0 6.3 15.0 4.4
15.0 15.0 15.0 7.2 4.8 2.2 0.1 0.1 0.6 0.1 1.8 14.5 2.7 2.3 6.2 15.0 15.0 15.0 15.0 15.0 15.0 15.0 15.0 15.0 15.0 15.0 15.0 15.0 15.0 15.0 15.0 14.3 11.3 7.0 8.8 14.6 6.7 15.0 13.0 9.7 13.7 6.1 4.3
15.0 15.0 15.0 15.0 15.0 15.0 1.2 0.3 1.4 0.1 0.1 15.0 15.0 15.0 15.0 12.1 11.9 15.0 15.0 15.0 15.0 15.0 15.0 15.0 15.0 15.0 15.0 15.0 15.0 15.0 15.0 11.5 15.0 15.0 13.4 12.3 6.7 15.0 15.0 15.0 10.4 9.6 3.8
15.0 15.0 15.0 15.0 15.0 15.0 15.0 12.4 0.9 6.2 3.8 15.0 15.0 15.0 15.0 15.0 15.0 15.0 15.0 15.0 15.0 15.0 15.0 15.0 15.0 15.0 15.0 15.0 15.0 15.0 15.0 15.0 15.0 13.7 12.6 6.3 5.5 4.0 11.7 10.1 1.4 8.0 8.6
15.0 15.0 15.0 15.0 15.0 15.0 15.0 15.0 4.5 10.5 15.0 15.0 15.0 15.0 15.0 15.0 15.0 15.0 15.0 15.0 15.0 15.0 15.0 15.0 15.0 15.0 15.0 15.0 15.0 0.2 15.0 15.0 15.0 4.3 11.0 6.2 0.1 0.1 0.0 0.0 0.1 1.4 4.4
15.0 15.0 15.0 15.0 15.0 15.0 15.0 15.0 15.0 15.0 15.0 15.0 15.0 15.0 15.0 15.0 15.0 15.0 15.0 15.0 15.0 15.0 15.0 15.0 15.0 15.0 15.0 15.0 15.0 15.0 15.0 15.0 15.0 15.0 0.6 2.5 0.7 0.0 0.1 0.0 0.0 0.0 0.0
15.0 15.0 15.0 15.0 15.0 15.0 15.0 15.0 15.0 15.0 15.0 15.0 15.0 15.0 15.0 15.0 15.0 15.0 15.0 15.0 15.0 15.0 15.0 15.0 15.0 15.0 15.0 15.0 15.0 15.0 15.0 15.0 15.0 15.0 0.4 0.1 0.0 0.1 0.1 0.1 0.0 0.0 0.1
15.0 15.0 15.0 15.0 15.0 15.0 15.0 15.0 15.0 15.0 15.0 15.0 15.0 15.0 14.8 15.0 15.0 15.0 15.0 15.0 15.0 15.0 15.0 15.0 15.0 15.0 15.0 15.0 15.0 15.0 15.0 15.0 15.0 4.1 0.0 0.0 0.0 0.0 0.1 0.0 0.0 0.0 0.0
15.0 15.0 15.0 15.0 15.0 15.0 15.0 15.0 15.0 15.0 15.0 15.0 15.0 15.0 15.0 15.0 15.0 15.0 15.0 15.0 15.0 15.0 15.0 15.0 15.0 15.0 15.0 15.0 15.0 15.0 15.0 15.0 15.0 1.5 0.0 0.0 0.0 0.0 0.0 0.0 0.0 0.0 0.0
15.0 15.0 15.0 15.0 15.0 15.0 15.0 15.0 15.0 15.0 15.0 15.0 15.0 15.0 15.0 15.0 15.0 15.0 15.0 15.0 15.0 15.0 15.0 15.0 15.0 15.0 15.0 15.0 15.0 15.0 15.0 15.0 10.0 12.3 15.0 0.5 0.1 0.1 0.1 0.1 0.0 0.0 0.0
15.0 15.0 15.0 15.0 15.0 15.0 15.0 15.0 15.0 15.0 15.0 15.0 15.0 15.0 15.0 15.0 15.0 15.0 15.0 15.0 15.0 15.0 15.0 15.0 15.0 15.0 15.0 15.0 15.0 15.0 15.0 15.0 3.3 0.1 0.1 0.1 0.1 0.5 0.2 0.1 0.1 0.1 0.0
15.0 15.0 15.0 15.0 15.0 15.0 15.0 15.0 15.0 15.0 15.0 15.0 15.0 15.0 15.0 15.0 15.0 15.0 14.6 14.1 15.0 14.8 15.0 14.3 14.6 15.0 15.0 15.0 15.0 15.0 15.0 15.0 0.6 0.3 0.2 0.4 2.3 2.6 0.1 0.1 0.1 0.1 0.0
15.0 15.0 15.0 15.0 15.0 15.0 15.0 15.0 15.0 15.0 15.0 15.0 15.0 15.0 15.0 14.9 14.4 15.0 13.7 13.2 13.1 8.2 10.3 7.4 4.3 3.8 13.7 13.0 4.0 11.2 9.3 14.9 14.9 13.3 15.0 6.1 1.6 15.0 0.8 0.1 0.2 0.1 0.1
15.0 15.0 15.0 15.0 15.0 15.0 15.0 15.0 15.0 15.0 14.7 14.2 15.0 12.7 13.1 15.0 14.8 11.2 11.0 9.0 8.7 5.4 1.0 1.3 1.4 0.5 1.6 0.8 7.3 0.7 0.7 5.9 5.8 2.4 7.1 13.5 15.0 15.0 15.0 15.0 15.0 14.9 15.0
15.0 15.0 15.0 15.0 15.0 15.0 15.0 15.0 15.0 15.0 15.0 14.8 12.0 9.5 10.1 9.1 9.5 8.7 14.7 15.0 15.0 15.0 15.0 14.9 7.6 9.9 11.3 15.0 15.0 15.0 4.5 3.9 3.0 3.9 2.8 5.8 7.7 10.8 11.8 11.1 0.6 0.8 1.0